{"data":{"norad_id":67990,"epoch":"2026-05-24T13:16:27.263712Z","epoch_age_seconds":110731,"freshness":"FRESH","line1":"1 67990U 26039E   26144.55309333  .00014577  00000+0  53807-3 0  9998","line2":"2 67990  42.9988 340.6782 0001070 271.7911  88.2818 15.27586391 13308","mean_motion":15.27586391,"eccentricity":0.000107,"inclination_deg":42.9988,"raan_deg":340.6782,"arg_perigee_deg":271.7911,"mean_anomaly_deg":88.2818,"bstar":0.00053807,"rev_number":1330,"period_min":94.266354327583,"perigee_km":482.29581428859,"apogee_km":483.76410401785,"semimajor_km":6861.1669591532,"source":"CELESTRAK","updated_at":"2026-05-25T13:38:21.779616Z"}}